Date String (YYYY-MM-DD hh:mm:ss) UTC,Instrument flags,Ambient pressure (hPa),Sample flow (lpm),Bypass flow (lpm),Sample temperature (°C),Ambient temperature (°C),ASC tube jacket temperature (°C),LED temperature (°C),Box temperature (°C),Sample RH (%),Span deviation,Mass concentration (μg/m³),Mass concentration (μg/m³),Mass concentration (μg/m³)
DateTimeUTC,F1_M11,P_M11,Q1_M11,Q2_M11,T1_M11,T2_M11,T3_M11,T4_M11,T5_M11,U1_M11,ZSPAN_M11,X0_M11,X2_M11,X1_M11
2022-11-11 13:00:00,,0827.7,5.01,0.00,22.3,20.7,00.0,31.2,24.1,08.9,0000.0,0006.85,0003.61,0003.34
2022-11-11 13:01:00,,0827.7,5.00,0.00,22.3,20.6,00.0,31.2,24.0,08.9,0000.0,0007.06,0003.62,0003.34
2022-11-11 13:02:00,,0827.7,5.00,0.00,22.3,20.5,00.0,31.2,24.0,09.0,0000.0,0007.43,0003.65,0003.35
2022-11-11 13:03:00,,0827.7,5.00,0.00,22.2,20.4,00.0,31.2,24.0,09.0,0000.0,0008.27,0003.69,0003.36
2022-11-11 13:04:00,,0827.7,4.98,0.00,22.2,20.4,00.0,31.2,24.0,09.1,0000.0,0008.49,0003.70,0003.36
2022-11-11 13:05:00,,0827.7,5.01,0.00,22.2,20.9,00.0,31.1,24.1,09.1,0000.0,0008.23,0003.71,0003.36
2022-11-11 13:06:00,,0827.7,4.99,0.00,22.3,21.8,00.0,31.1,24.3,09.1,0000.0,0008.00,0003.71,0003.37
2022-11-11 13:07:00,,0827.7,5.01,0.00,22.4,22.2,00.0,31.1,24.4,09.1,0000.0,0007.99,0003.72,0003.38
2022-11-11 13:08:00,,0827.7,4.99,0.00,22.4,21.8,00.0,31.2,24.3,09.1,0000.0,0007.96,0003.72,0003.39
2022-11-11 13:09:00,,0827.7,5.00,0.00,22.4,21.3,00.0,31.2,24.2,09.1,0000.0,0007.92,0003.74,0003.39
2022-11-11 13:10:00,,0827.7,5.00,0.00,22.3,20.9,00.0,31.2,24.1,09.1,0000.0,0008.12,0003.74,0003.39
2022-11-11 13:11:00,,0827.7,4.99,0.00,22.3,20.6,00.0,31.2,24.0,09.2,0000.0,0008.00,0003.73,0003.40
2022-11-11 13:12:00,,0827.7,5.02,0.00,22.2,20.4,00.0,31.1,24.0,09.2,0000.0,0008.14,0003.73,0003.41
2022-11-11 13:13:00,,0827.7,4.99,0.00,22.2,20.2,00.0,31.1,23.9,09.2,0000.0,0008.55,0003.72,0003.41
2022-11-11 13:14:00,,0827.7,5.00,0.00,22.2,20.2,00.0,31.1,23.9,09.3,0000.0,0007.91,0003.68,0003.41
2022-11-11 13:15:00,,0827.7,5.00,0.00,22.1,20.1,00.0,31.1,23.8,09.3,0000.0,0007.50,0003.68,0003.41
2022-11-11 13:16:00,,0827.8,5.02,0.00,22.1,20.1,00.0,31.1,23.8,09.3,0000.0,0007.51,0003.68,0003.41
2022-11-11 13:17:00,,0827.9,4.99,0.00,22.1,20.9,00.0,31.0,24.0,09.3,0000.0,0007.52,0003.70,0003.42
2022-11-11 13:18:00,,0827.9,4.99,0.00,22.2,22.0,00.0,31.0,24.2,09.3,0000.0,0007.47,0003.69,0003.43
2022-11-11 13:19:00,,0827.9,5.01,0.00,22.3,22.0,00.0,31.0,24.3,09.3,0000.0,0007.50,0003.70,0003.44
2022-11-11 13:20:00,,0827.9,5.00,0.00,22.3,21.6,00.0,31.1,24.2,09.3,0000.0,0007.64,0003.72,0003.44
2022-11-11 13:21:00,,0827.9,4.99,0.00,22.3,21.2,00.0,31.1,24.2,09.3,0000.0,0007.52,0003.74,0003.47
2022-11-11 13:22:00,,0827.8,4.99,0.00,22.3,20.9,00.0,31.1,24.1,09.3,0000.0,0007.35,0003.75,0003.48
2022-11-11 13:23:00,,0827.8,5.00,0.00,22.2,20.7,00.0,31.1,24.0,09.4,0000.0,0007.18,0003.77,0003.49
2022-11-11 13:24:00,,0827.9,5.02,0.00,22.2,20.5,00.0,31.1,24.0,09.4,0000.0,0006.01,0003.79,0003.51
2022-11-11 13:25:00,,0827.8,4.99,0.00,22.2,20.4,00.0,31.0,23.9,09.4,0000.0,0005.79,0003.81,0003.54
2022-11-11 13:26:00,,0827.8,5.00,0.00,22.2,20.4,00.0,31.0,23.9,09.5,0000.0,0005.84,0003.84,0003.58
2022-11-11 13:27:00,,0827.9,5.01,0.00,22.1,20.5,00.0,31.0,23.9,09.5,0000.0,0006.41,0003.88,0003.60
2022-11-11 13:28:00,,0827.9,5.00,0.00,22.1,20.5,00.0,31.0,23.9,09.5,0000.0,0006.64,0003.92,0003.64
2022-11-11 13:29:00,,0827.9,5.01,0.00,22.1,20.7,00.0,31.0,23.9,09.5,0000.0,0006.83,0003.99,0003.68
2022-11-11 13:30:00,,0827.9,4.99,0.00,22.2,21.5,00.0,31.0,24.1,09.5,0000.0,0006.99,0004.03,0003.72
2022-11-11 13:31:00,,0827.9,5.00,0.00,22.3,22.5,00.0,31.0,24.4,09.4,0000.0,0006.81,0004.04,0003.74
2022-11-11 13:32:00,,0827.9,5.01,0.00,22.4,22.3,00.0,31.0,24.4,09.4,0000.0,0006.85,0004.06,0003.73
2022-11-11 13:33:00,,0827.8,4.99,0.00,22.4,21.9,00.0,31.1,24.4,09.4,0000.0,0007.06,0004.11,0003.74
2022-11-11 13:34:00,,0827.9,5.02,0.00,22.4,21.7,00.0,31.1,24.3,09.4,0000.0,0006.98,0004.11,0003.74
2022-11-11 13:35:00,,0827.9,4.99,0.00,22.4,21.5,00.0,31.1,24.3,09.3,0000.0,0007.01,0004.09,0003.74
2022-11-11 13:36:00,,0828.0,5.01,0.00,22.4,21.3,00.0,31.1,24.2,09.3,0000.0,0007.54,0004.09,0003.73
2022-11-11 13:37:00,,0827.9,4.99,0.00,22.4,21.2,00.0,31.1,24.2,09.3,0000.0,0007.78,0004.07,0003.71
2022-11-11 13:38:00,,0827.9,5.01,0.00,22.4,21.1,00.0,31.1,24.2,09.3,0000.0,0007.74,0004.05,0003.71
2022-11-11 13:39:00,,0828.0,4.99,0.00,22.4,21.1,00.0,31.1,24.2,09.3,0000.0,0007.70,0004.03,0003.69
2022-11-11 13:40:00,,0827.9,5.01,0.00,22.4,21.1,00.0,31.2,24.2,09.3,0000.0,0008.05,0004.05,0003.69
2022-11-11 13:41:00,,0828.0,5.00,0.00,22.4,21.1,00.0,31.2,24.2,09.3,0000.0,0008.23,0004.03,0003.66
2022-11-11 13:42:00,,0828.0,4.99,0.00,22.4,21.1,00.0,31.2,24.2,09.2,0000.0,0009.39,0004.04,0003.65
2022-11-11 13:43:00,,0828.0,5.00,0.00,22.4,21.2,00.0,31.2,24.2,09.2,0000.0,0009.80,0004.04,0003.66
2022-11-11 13:44:00,,0828.1,5.00,0.00,22.4,21.9,00.0,31.2,24.4,09.1,0000.0,0009.80,0004.03,0003.66
2022-11-11 13:45:00,,0828.1,4.99,0.00,22.5,22.6,00.0,31.2,24.6,09.0,0000.0,0009.82,0004.03,0003.65
2022-11-11 13:46:00,,0828.1,5.01,0.00,22.6,22.4,00.0,31.2,24.6,09.0,0000.0,0009.87,0004.05,0003.64
2022-11-11 13:47:00,,0828.1,5.00,0.00,22.6,22.0,00.0,31.2,24.5,08.9,0000.0,0009.75,0004.13,0003.64
2022-11-11 13:48:00,,0828.1,4.99,0.00,22.6,21.8,00.0,31.2,24.5,08.9,0000.0,0010.24,0004.14,0003.62
2022-11-11 13:49:00,,0828.2,5.01,0.00,22.6,21.6,00.0,31.2,24.4,08.9,0000.0,0010.18,0004.16,0003.59
2022-11-11 13:50:00,,0828.1,4.99,0.00,22.6,21.4,00.0,31.3,24.4,08.9,0000.0,0010.37,0004.17,0003.57
2022-11-11 13:51:00,,0828.2,5.00,0.00,22.5,21.3,00.0,31.3,24.4,09.0,0000.0,0010.14,0004.12,0003.53
2022-11-11 13:52:00,,0828.1,5.00,0.00,22.5,21.2,00.0,31.3,24.3,09.0,0000.0,0010.29,0004.09,0003.51
2022-11-11 13:53:00,,0828.2,5.00,0.00,22.5,21.2,00.0,31.3,24.3,09.0,0000.0,0009.52,0004.10,0003.50
2022-11-11 13:54:00,,0828.1,4.99,0.00,22.5,21.2,00.0,31.3,24.3,09.1,0000.0,0008.90,0004.08,0003.48
2022-11-11 13:55:00,,0828.2,5.01,0.00,22.5,21.2,00.0,31.3,24.3,09.0,0000.0,0008.86,0004.08,0003.48
2022-11-11 13:56:00,,0828.2,5.01,0.00,22.5,21.1,00.0,31.3,24.3,09.1,0000.0,0008.94,0004.10,0003.47
2022-11-11 13:57:00,,0828.1,4.99,0.00,22.5,21.7,00.0,31.3,24.4,09.1,0000.0,0008.76,0004.07,0003.47
2022-11-11 13:58:00,,0828.2,5.01,0.00,22.6,22.6,00.0,31.3,24.6,09.2,0000.0,0008.60,0003.98,0003.46
2022-11-11 13:59:00,,0828.2,5.01,0.00,22.7,22.6,00.0,31.3,24.7,09.2,0000.0,0008.22,0003.98,0003.46
